AFX14 EBAW-EGLC

Flight info

Callsign AFX14
Flight time 0h 52m
Altitude 18000
Route NIK L179 SASKI L608 SUMUM
Aircraft AT76/M-SDFGIRY/S

Departure

Time 2026-04-21 09:21
Airport Antwerp International Airport (Deurne) (EBAW)

Arrival

Time 2026-04-21 10:13
Airport London City Airport (EGLC)
Time Latitude Longitude Altitude Speed Heading
2026-04-21 08:49 51.18857 4.45392 35 ft 0 kts 148°
2026-04-21 08:53 51.18857 4.45391 35 ft 0 kts 148°
2026-04-21 09:00 51.18858 4.45391 35 ft 0 kts 148°
2026-04-21 09:05 51.18858 4.45390 35 ft 0 kts 148°
2026-04-21 09:12 51.18859 4.45390 35 ft 0 kts 148°
2026-04-21 09:17 51.18858 4.45390 35 ft 1 kts 148°
2026-04-21 09:17 51.18831 4.45420 35 ft 6 kts 125°
2026-04-21 09:17 51.18847 4.45446 35 ft 4 kts
2026-04-21 09:17 51.18894 4.45421 35 ft 9 kts 332°
2026-04-21 09:18 51.18916 4.45402 35 ft 0 kts 330°
2026-04-21 09:18 51.18933 4.45391 35 ft 9 kts 346°
2026-04-21 09:18 51.18983 4.45450 35 ft 13 kts 50°
2026-04-21 09:18 51.19047 4.45496 35 ft 11 kts 328°
2026-04-21 09:19 51.19083 4.45452 35 ft 3 kts 323°
2026-04-21 09:19 51.19121 4.45405 35 ft 3 kts 325°
2026-04-21 09:19 51.19152 4.45367 36 ft 12 kts 322°
2026-04-21 09:19 51.19217 4.45321 38 ft 7 kts 38°
2026-04-21 09:20 51.19188 4.45480 37 ft 47 kts 111°
2026-04-21 09:20 51.18999 4.46390 82 ft 118 kts 111°
2026-04-21 09:20 51.18605 4.47697 450 ft 138 kts 116°
2026-04-21 09:20 51.18123 4.49116 531 ft 161 kts 119°
2026-04-21 09:21 51.17513 4.50772 651 ft 178 kts 120°
2026-04-21 09:21 51.16739 4.52273 1034 ft 176 kts 141°
2026-04-21 09:21 51.15589 4.52918 1366 ft 182 kts 179°
2026-04-21 09:21 51.14375 4.52235 1538 ft 195 kts 219°
2026-04-21 09:22 51.13649 4.50470 1847 ft 194 kts 257°
2026-04-21 09:22 51.13538 4.48365 2171 ft 190 kts 268°
2026-04-21 09:22 51.13352 4.46334 2697 ft 183 kts 254°
2026-04-21 09:22 51.12871 4.44437 2820 ft 195 kts 247°
2026-04-21 09:23 51.12331 4.42358 2919 ft 202 kts 253°
2026-04-21 09:23 51.12175 4.40184 3339 ft 195 kts 277°
2026-04-21 09:23 51.12519 4.38064 3500 ft 199 kts 292°
2026-04-21 09:23 51.12975 4.36026 3943 ft 191 kts 292°
2026-04-21 09:24 51.13309 4.34015 4401 ft 188 kts 284°
2026-04-21 09:24 51.13437 4.31900 4638 ft 196 kts 271°
2026-04-21 09:24 51.13520 4.29700 4853 ft 202 kts 281°
2026-04-21 09:24 51.13794 4.27540 5184 ft 198 kts 290°
2026-04-21 09:25 51.14396 4.25480 5249 ft 208 kts 303°
2026-04-21 09:25 51.15076 4.23507 5609 ft 203 kts 302°
2026-04-21 09:25 51.15707 4.21390 5603 ft 222 kts 295°
2026-04-21 09:25 51.16250 4.19024 5777 ft 229 kts 293°
2026-04-21 09:26 51.16728 4.16702 6487 ft 211 kts 287°
2026-04-21 09:26 51.17067 4.14432 6720 ft 222 kts 291°
2026-04-21 09:26 51.17545 4.12075 7204 ft 214 kts 289°
2026-04-21 09:26 51.17886 4.09781 8023 ft 214 kts 286°
2026-04-21 09:27 51.18311 4.07435 8596 ft 227 kts 293°
2026-04-21 09:27 51.18880 4.05063 9385 ft 227 kts 295°
2026-04-21 09:27 51.19360 4.02707 10345 ft 222 kts 284°
2026-04-21 09:27 51.19582 4.00240 10979 ft 231 kts 287°
2026-04-21 09:28 51.20220 3.97829 11478 ft 236 kts 301°
2026-04-21 09:28 51.20964 3.95579 12480 ft 222 kts 302°
2026-04-21 09:28 51.21563 3.93326 13294 ft 224 kts 294°
2026-04-21 09:28 51.22060 3.90850 13715 ft 244 kts 289°
2026-04-21 09:29 51.22611 3.88274 14250 ft 247 kts 299°
2026-04-21 09:29 51.23415 3.85935 15168 ft 233 kts 305°
2026-04-21 09:29 51.24130 3.83656 16056 ft 231 kts 293°
2026-04-21 09:29 51.24527 3.81090 16382 ft 248 kts 290°
2026-04-21 09:30 51.25152 3.78459 16775 ft 255 kts 301°
2026-04-21 09:30 51.26044 3.76110 17652 ft 239 kts 309°
2026-04-21 09:30 51.26928 3.73924 18381 ft 238 kts 302°
2026-04-21 09:30 51.27718 3.71425 17860 ft 264 kts 300°
2026-04-21 09:31 51.28396 3.68824 18322 ft 236 kts 294°
2026-04-21 09:31 51.28860 3.66393 18566 ft 232 kts 285°
2026-04-21 09:31 51.29053 3.63771 18412 ft 243 kts 274°
2026-04-21 09:31 51.28891 3.61075 18353 ft 247 kts 252°
2026-04-21 09:32 51.28280 3.58563 18326 ft 240 kts 262°
2026-04-21 09:32 51.28469 3.55993 18321 ft 232 kts 296°
2026-04-21 09:32 51.29159 3.53660 18315 ft 233 kts 301°
2026-04-21 09:32 51.29893 3.51386 18314 ft 234 kts 301°
2026-04-21 09:33 51.30661 3.49084 18305 ft 235 kts 302°
2026-04-21 09:33 51.31472 3.46819 18311 ft 235 kts 305°
2026-04-21 09:33 51.32309 3.44560 18303 ft 237 kts 303°
2026-04-21 09:33 51.33093 3.42242 18302 ft 237 kts 301°
2026-04-21 09:34 51.33711 3.39791 18306 ft 238 kts 292°
2026-04-21 09:34 51.34265 3.37299 18304 ft 236 kts 297°
2026-04-21 09:34 51.35021 3.34977 18303 ft 235 kts 304°
2026-04-21 09:34 51.35843 3.32721 18299 ft 236 kts 297°
2026-04-21 09:35 51.36395 3.30267 18303 ft 234 kts 294°
2026-04-21 09:35 51.36950 3.27819 18300 ft 233 kts 297°
2026-04-21 09:35 51.37721 3.25554 18303 ft 231 kts 305°
2026-04-21 09:35 51.38647 3.23491 18300 ft 227 kts 307°
2026-04-21 09:36 51.39072 3.21035 18306 ft 234 kts 273°
2026-04-21 09:36 51.39287 3.18508 18303 ft 228 kts 294°
2026-04-21 09:36 51.39886 3.16165 18303 ft 229 kts 293°
2026-04-21 09:36 51.40381 3.13726 18303 ft 232 kts 291°
2026-04-21 09:37 51.40889 3.11275 18304 ft 232 kts 296°
2026-04-21 09:37 51.41545 3.08906 18303 ft 234 kts 297°
2026-04-21 09:37 51.42134 3.06466 18303 ft 235 kts 294°
2026-04-21 09:37 51.42751 3.04039 18303 ft 236 kts 297°
2026-04-21 09:38 51.43373 3.01597 18303 ft 237 kts 295°
2026-04-21 09:38 51.43980 2.99136 18302 ft 238 kts 296°
2026-04-21 09:38 51.44608 2.96683 18303 ft 239 kts 295°
2026-04-21 09:38 51.45224 2.94210 18302 ft 239 kts 295°
2026-04-21 09:39 51.45849 2.91735 18302 ft 240 kts 295°
2026-04-21 09:39 51.46474 2.89253 18303 ft 240 kts 295°
2026-04-21 09:39 51.47098 2.86766 18303 ft 241 kts 295°
2026-04-21 09:39 51.47724 2.84275 18302 ft 241 kts 295°
2026-04-21 09:40 51.48351 2.81782 18302 ft 241 kts 295°
2026-04-21 09:40 51.48979 2.79287 18302 ft 241 kts 295°
2026-04-21 09:40 51.49605 2.76792 18303 ft 241 kts 295°
2026-04-21 09:40 51.50230 2.74297 18302 ft 241 kts 295°
2026-04-21 09:41 51.50859 2.71799 18302 ft 241 kts 295°
2026-04-21 09:41 51.51486 2.69298 18303 ft 242 kts 295°
2026-04-21 09:41 51.52109 2.66794 18302 ft 241 kts 293°
2026-04-21 09:41 51.52472 2.64168 18302 ft 241 kts 282°
2026-04-21 09:42 51.52746 2.61505 18302 ft 242 kts 283°
2026-04-21 09:42 51.53071 2.58853 18303 ft 242 kts 284°
2026-04-21 09:42 51.53463 2.56220 18303 ft 243 kts 288°
2026-04-21 09:42 51.53944 2.53625 18303 ft 242 kts 291°
2026-04-21 09:43 51.54503 2.51070 18303 ft 243 kts 293°
2026-04-21 09:43 51.55085 2.48561 18306 ft 243 kts 294°
2026-04-21 09:43 51.55697 2.45990 18309 ft 243 kts 294°
2026-04-21 09:43 51.56288 2.43442 18311 ft 244 kts 293°
2026-04-21 09:44 51.56871 2.40884 18311 ft 244 kts 293°
2026-04-21 09:44 51.57447 2.38355 18312 ft 244 kts 293°
2026-04-21 09:44 51.58033 2.35788 18312 ft 245 kts 293°
2026-04-21 09:44 51.58612 2.33219 18311 ft 244 kts 291°
2026-04-21 09:45 51.58710 2.30517 18313 ft 244 kts 261°
2026-04-21 09:45 51.58431 2.27823 18312 ft 244 kts 263°
2026-04-21 09:45 51.58311 2.25102 18312 ft 244 kts 272°
2026-04-21 09:45 51.58548 2.22412 18313 ft 243 kts 287°
2026-04-21 09:46 51.59045 2.19810 18313 ft 244 kts 292°
2026-04-21 09:46 51.59613 2.17239 18312 ft 244 kts 293°
2026-04-21 09:46 51.60195 2.14666 18312 ft 245 kts 293°
2026-04-21 09:46 51.60795 2.12110 18309 ft 241 kts 300°
2026-04-21 09:47 51.61903 2.10231 18312 ft 229 kts 338°
2026-04-21 09:47 51.63401 2.09644 18313 ft 219 kts 355°
2026-04-21 09:47 51.64761 2.08483 18310 ft 233 kts 316°
2026-04-21 09:47 51.65462 2.06115 18315 ft 240 kts 283°
2026-04-21 09:48 51.65729 2.03454 18312 ft 242 kts 280°
2026-04-21 09:48 51.65780 2.00749 18312 ft 242 kts 268°
2026-04-21 09:48 51.65650 1.98009 18150 ft 252 kts 266°
2026-04-21 09:48 51.65431 1.95138 17845 ft 264 kts 261°
2026-04-21 09:49 51.65100 1.92177 17548 ft 273 kts 259°
2026-04-21 09:49 51.64733 1.89159 17367 ft 275 kts 259°
2026-04-21 09:49 51.64355 1.86161 17279 ft 272 kts 259°
2026-04-21 09:49 51.63975 1.83196 17246 ft 269 kts 259°
2026-04-21 09:50 51.63537 1.80297 17230 ft 265 kts 255°
2026-04-21 09:50 51.63373 1.79332 17176 ft 265 kts 255°
2026-04-21 09:50 51.61964 1.71436 15864 ft 280 kts 254°
2026-04-21 09:51 51.61418 1.68460 15513 ft 274 kts 254°
2026-04-21 09:51 51.60879 1.65551 15162 ft 269 kts 253°
2026-04-21 09:51 51.60365 1.62693 14809 ft 262 kts 258°
2026-04-21 09:51 51.60067 1.59846 14483 ft 255 kts 256°
2026-04-21 09:52 51.59523 1.57148 14210 ft 254 kts 250°
2026-04-21 09:52 51.59008 1.54446 13938 ft 251 kts 257°
2026-04-21 09:52 51.58526 1.51728 13507 ft 258 kts 252°
2026-04-21 09:52 51.57960 1.48939 13013 ft 263 kts 254°
2026-04-21 09:53 51.57528 1.46129 12658 ft 256 kts 254°
2026-04-21 09:53 51.56993 1.43416 12312 ft 253 kts 252°
2026-04-21 09:53 51.56508 1.40721 11961 ft 248 kts 259°
2026-04-21 09:53 51.56066 1.38069 11614 ft 245 kts 253°
2026-04-21 09:54 51.55531 1.35472 11292 ft 243 kts 252°
2026-04-21 09:54 51.55121 1.32869 10963 ft 239 kts 255°
2026-04-21 09:54 51.54632 1.30351 10641 ft 239 kts 252°
2026-04-21 09:54 51.54141 1.27813 10319 ft 236 kts 258°
2026-04-21 09:55 51.53732 1.25267 9994 ft 235 kts 253°
2026-04-21 09:55 51.53219 1.22757 9670 ft 237 kts 251°
2026-04-21 09:55 51.52794 1.20227 9343 ft 233 kts 257°
2026-04-21 09:55 51.52331 1.17729 9024 ft 233 kts 252°
2026-04-21 09:56 51.51824 1.15254 8692 ft 233 kts 255°
2026-04-21 09:56 51.51434 1.12745 8367 ft 232 kts 253°
2026-04-21 09:56 51.50937 1.10282 8041 ft 232 kts 251°
2026-04-21 09:56 51.50491 1.07806 7715 ft 229 kts 258°
2026-04-21 09:57 51.50064 1.05332 7391 ft 230 kts 252°
2026-04-21 09:57 51.49559 1.02887 7066 ft 231 kts 251°
2026-04-21 09:57 51.49145 1.00429 6734 ft 226 kts 258°
2026-04-21 09:57 51.48713 0.98001 6412 ft 227 kts 252°
2026-04-21 09:58 51.48212 0.95608 6187 ft 224 kts 251°
2026-04-21 09:58 51.47801 0.93185 6087 ft 228 kts 253°
2026-04-21 09:58 51.47461 0.90704 6041 ft 230 kts 267°
2026-04-21 09:58 51.47465 0.88970 6027 ft 232 kts 274°
2026-04-21 09:59 51.47593 0.86377 5975 ft 236 kts 277°
2026-04-21 09:59 51.47751 0.83733 5708 ft 247 kts 277°
2026-04-21 09:59 51.47913 0.80957 5512 ft 251 kts 276°
2026-04-21 09:59 51.48042 0.78138 5313 ft 249 kts 275°
2026-04-21 10:00 51.48143 0.75378 5112 ft 247 kts 275°
2026-04-21 10:00 51.48246 0.72638 4912 ft 245 kts 275°
2026-04-21 10:00 51.48349 0.69911 4711 ft 245 kts 275°
2026-04-21 10:00 51.48450 0.67190 4549 ft 243 kts 275°
2026-04-21 10:01 51.48547 0.64527 4428 ft 243 kts 275°
2026-04-21 10:01 51.48647 0.61789 4301 ft 243 kts 275°
2026-04-21 10:01 51.48742 0.59120 4179 ft 243 kts 275°
2026-04-21 10:01 51.48842 0.56404 4052 ft 245 kts 275°
2026-04-21 10:02 51.49035 0.50954 3807 ft 245 kts 275°
2026-04-21 10:02 51.49129 0.48226 3680 ft 244 kts 274°
2026-04-21 10:02 51.48785 0.45608 3544 ft 241 kts 245°
2026-04-21 10:03 51.47978 0.43257 3427 ft 241 kts 238°
2026-04-21 10:03 51.47082 0.40982 3307 ft 242 kts 236°
2026-04-21 10:03 51.46174 0.38705 3179 ft 243 kts 237°
2026-04-21 10:03 51.45282 0.36410 3081 ft 242 kts 238°
2026-04-21 10:04 51.44424 0.34103 3037 ft 240 kts 238°
2026-04-21 10:04 51.43577 0.31805 3017 ft 239 kts 239°
2026-04-21 10:04 51.43002 0.29384 2998 ft 233 kts 265°
2026-04-21 10:04 51.43016 0.26809 3002 ft 232 kts 276°
2026-04-21 10:05 51.43149 0.24222 3001 ft 233 kts 277°
2026-04-21 10:05 51.43291 0.21627 3003 ft 234 kts 277°
2026-04-21 10:05 51.43426 0.19024 2998 ft 235 kts 276°
2026-04-21 10:05 51.43530 0.16416 2996 ft 234 kts 275°
2026-04-21 10:06 51.43620 0.13802 3003 ft 236 kts 275°
2026-04-21 10:06 51.43704 0.11175 2997 ft 236 kts 275°
2026-04-21 10:06 51.43788 0.08558 2998 ft 235 kts 275°
2026-04-21 10:06 51.43873 0.05943 2999 ft 235 kts 275°
2026-04-21 10:07 51.43961 0.03328 3002 ft 235 kts 275°
2026-04-21 10:07 51.44037 0.00720 2991 ft 231 kts 275°
2026-04-21 10:07 51.44117 -0.01794 2990 ft 220 kts 275°
2026-04-21 10:07 51.44190 -0.04189 2996 ft 211 kts 275°
2026-04-21 10:08 51.44254 -0.06508 2998 ft 206 kts 276°
2026-04-21 10:08 51.44601 -0.08579 2872 ft 188 kts 311°
2026-04-21 10:08 51.45512 -0.09836 2578 ft 164 kts 334°
2026-04-21 10:08 51.46479 -0.10708 2283 ft 152 kts 341°
2026-04-21 10:09 51.47399 -0.11331 2128 ft 141 kts 346°
2026-04-21 10:09 51.48303 -0.11828 2073 ft 136 kts 349°
2026-04-21 10:09 51.49178 -0.11822 2038 ft 124 kts 34°
2026-04-21 10:09 51.49791 -0.10885 2012 ft 122 kts 48°
2026-04-21 10:10 51.50360 -0.09883 2013 ft 121 kts 50°
2026-04-21 10:10 51.50844 -0.08793 2005 ft 121 kts 73°
2026-04-21 10:10 51.50876 -0.07435 2007 ft 122 kts 86°
2026-04-21 10:10 51.50899 -0.06072 2006 ft 122 kts 86°
2026-04-21 10:11 51.50862 -0.04709 1996 ft 123 kts 92°
2026-04-21 10:11 51.50792 -0.03284 1741 ft 135 kts 91°
2026-04-21 10:11 51.50742 -0.01799 1423 ft 127 kts 90°
2026-04-21 10:11 51.50706 -0.00425 1112 ft 121 kts 90°
2026-04-21 10:12 51.50672 0.00902 826 ft 117 kts 90°
2026-04-21 10:12 51.50632 0.02197 518 ft 115 kts 91°
2026-04-21 10:12 51.50589 0.03415 217 ft 103 kts 90°
2026-04-21 10:12 51.50550 0.04602 52 ft 109 kts 91°
2026-04-21 10:13 51.50523 0.05532 19 ft 34 kts 92°
2026-04-21 10:13 51.50510 0.05910 18 ft 28 kts 93°
2026-04-21 10:13 51.50501 0.06196 21 ft 20 kts 93°
2026-04-21 10:13 51.50484 0.06309 24 ft 5 kts 140°
2026-04-21 10:14 51.50439 0.06345 24 ft 3 kts 182°
2026-04-21 10:14 51.50425 0.06273 23 ft 14 kts 270°
2026-04-21 10:14 51.50433 0.06119 20 ft 16 kts 275°
2026-04-21 10:14 51.50439 0.05931 18 ft 17 kts 270°
2026-04-21 10:15 51.50441 0.05753 20 ft 16 kts 273°
2026-04-21 10:15 51.50439 0.05572 18 ft 17 kts 265°
2026-04-21 10:15 51.50435 0.05391 24 ft 15 kts 272°
2026-04-21 10:15 51.50424 0.05279 24 ft 7 kts 216°
2026-04-21 10:16 51.50401 0.05274 25 ft 0 kts 181°
2026-04-21 10:20 51.50402 0.05274 26 ft 0 kts 181°
2026-04-21 10:31 51.50403 0.05274 23 ft 0 kts 180°